Home > Weather > St. George > Past weeks

Flag for USA Past Weather in St. George, Utah, USA — Yesterday and Last 2 Weeks

Now
106 °F

Thundershowers. Sunny.


Feels Like: 101 °F
Forecast: 82 / 108 °F
Wind: 14 mph from Southwest

Location: Saint George

Current Time: Jul 28, 2016 at 6:25:24 PM

Latest Report: Jul 28, 2016 at 5:55 PM


Visibility: 10 mi

Pressure: 29.86 "Hg (27.25 "Hg at 842m altitude)

Humidity: 11%

Dew Point: 41 °F

Location of St. GeorgeLocation

Past Weather in St. George — Graph

°F

St. George Temperature Yesterday

Maximum temperature yesterday: 111 °F (at 4:55 PM)
Minimum temperature yesterday: 81 °F (at 6:35 AM)
Average temperature yesterday: 96 °F

High & Low Weather Summary for the Past Weeks

 TemperatureHumidityPressure
High111 °F (Jul 27, 4:55 PM)39% (Jul 19, 4:15 AM)30.14 "Hg (Jul 19, 4:15 AM)
Low70 °F (Jul 14, 6:55 AM)9% (Jul 13, 9:15 PM)29.82 "Hg (Jul 16, 7:15 PM)
Average93 °F18%29.98 "Hg
* Reported Jul 13 5:15 PM — Jul 28 5:15 PM, St. George, Weather by CustomWeather, © 2016

Note: Actual official high and low records may vary slightly from our data, if they occured in-between our weather recording intervals... More about our weather records

Advertising

St. George Weather History for the Previous 24 Hours

Scroll right to see more
 ConditionsComfort  
Time TempWeatherWind HumidityBarometerVisibility
5:15 PM
Thu, Jul 28
106 °FThundershowers. Sunny.24 mph11%29.87 "Hg10 mi
4:55 PM102 °FSunny.20 mph13%29.87 "Hg5 mi
4:35 PM108 °FThunderstorms. Sunny.31 mph11%29.87 "Hg9 mi
4:15 PM111 °FSunny.24 mph11%29.87 "Hg10 mi
3:55 PM111 °FSunny.6 mph11%29.87 "Hg10 mi
3:35 PM111 °FSunny.17 mph11%29.88 "Hg10 mi
3:15 PM111 °FSunny.22 mph11%29.89 "Hg10 mi
2:55 PM109 °FSunny.8 mph13%29.89 "Hg10 mi
2:35 PM109 °FSunny.14 mph13%29.90 "Hg10 mi
2:15 PM109 °FSunny.9 mph13%29.90 "Hg10 mi
1:55 PM109 °FSunny.8 mph13%29.91 "Hg10 mi
1:35 PM108 °FSunny.9 mph13%29.92 "Hg10 mi
1:15 PM106 °FSunny.3 mph13%29.93 "Hg10 mi
12:55 PM104 °FSunny.No wind14%29.94 "Hg10 mi
12:35 PM102 °FSunny.7 mph15%29.95 "Hg10 mi
12:15 PM100 °FSunny.7 mph16%29.96 "Hg10 mi
11:55 AM100 °FSunny.3 mph16%29.96 "Hg10 mi
11:35 AM99 °FSunny.No wind16%29.96 "Hg10 mi
11:15 AM97 °FSunny.No wind17%29.97 "Hg10 mi
10:55 AM97 °FSunny.No wind17%29.97 "Hg10 mi
10:35 AM95 °FSunny.5 mph18%29.97 "Hg10 mi
10:15 AM93 °FSunny.5 mph19%29.98 "Hg10 mi
9:55 AM93 °FSunny.3 mph19%29.98 "Hg10 mi
9:35 AM91 °FSunny.5 mph20%29.99 "Hg10 mi
9:15 AM91 °FSunny.7 mph20%29.99 "Hg10 mi
8:55 AM90 °FSunny.5 mph20%29.99 "Hg10 mi
8:35 AM88 °FSunny.7 mph21%29.98 "Hg10 mi
8:15 AM84 °FSunny.3 mph22%29.98 "Hg10 mi
7:55 AM82 °FSunny.6 mph21%29.98 "Hg10 mi
7:35 AM82 °FClear.3 mph23%29.98 "Hg10 mi
7:15 AM82 °FClear.No wind23%29.97 "Hg10 mi
6:55 AM82 °FClear.3 mph21%29.96 "Hg10 mi
6:35 AM82 °FClear.5 mph23%29.96 "Hg10 mi
5:55 AM84 °FClear.6 mph22%29.95 "Hg10 mi
5:35 AM84 °FClear.5 mph20%29.95 "Hg10 mi
5:15 AM84 °FClear.7 mph20%29.94 "Hg10 mi
4:55 AM86 °FClear.6 mph20%29.94 "Hg10 mi
4:35 AM84 °FClear.5 mph20%29.93 "Hg10 mi
4:15 AM86 °FClear.9 mph20%29.93 "Hg10 mi
3:55 AM88 °FClear.7 mph19%29.93 "Hg10 mi
3:35 AM88 °FClear.6 mph19%29.93 "Hg10 mi
3:15 AM88 °FClear.6 mph19%29.93 "Hg10 mi
2:55 AM88 °FClear.6 mph18%29.92 "Hg10 mi
2:35 AM90 °FClear.5 mph17%29.92 "Hg10 mi
2:15 AM90 °FClear.No wind16%29.92 "Hg10 mi
1:55 AM91 °FClear.No wind15%29.92 "Hg10 mi
1:35 AM93 °FClear.No wind14%29.92 "Hg10 mi
1:15 AM91 °FClear.3 mph14%29.91 "Hg10 mi
12:55 AM93 °FClear.3 mph13%29.91 "Hg10 mi
12:35 AM95 °FClear.6 mph13%29.91 "Hg10 mi
12:15 AM91 °FClear.9 mph14%29.90 "Hg10 mi
11:55 PM
Wed, Jul 27
91 °FClear.9 mph13%29.89 "Hg10 mi
11:35 PM95 °FClear.5 mph12%29.89 "Hg10 mi
11:15 PM97 °FClear.No wind12%29.89 "Hg10 mi
10:55 PM97 °FClear.3 mph12%29.89 "Hg10 mi
10:35 PM95 °FClear.No wind11%29.89 "Hg10 mi
9:55 PM102 °FClear.8 mph11%29.87 "Hg10 mi
9:35 PM102 °FSunny.10 mph11%29.86 "Hg10 mi
9:15 PM104 °FSunny.12 mph10%29.86 "Hg10 mi
8:55 PM106 °FSunny.10 mph9%29.86 "Hg10 mi
8:35 PM106 °FSunny.10 mph10%29.85 "Hg10 mi
8:15 PM108 °FSunny.14 mph10%29.85 "Hg10 mi
7:55 PM108 °FSunny.13 mph10%29.85 "Hg10 mi
7:35 PM109 °FSunny.14 mph10%29.85 "Hg10 mi
7:15 PM109 °FSunny.13 mph10%29.84 "Hg10 mi
6:55 PM109 °FSunny.8 mph10%29.85 "Hg10 mi
6:35 PM109 °FSunny.8 mph10%29.85 "Hg10 mi
6:15 PM109 °FSunny.6 mph10%29.86 "Hg10 mi
Weather by CustomWeather, © 2016

See weather overviewHow to use our weather pages